Regional Weather Roundup
Issued by NWS

Home | Current Version | Previous Version | Text Only | Print | Product List | Glossary On
Versions: 1 2 3 4 5 6 7 8 9 10 11 12 13 14 15 16 17 18 19 20 21 22 23 24 25 26 27 28 29 30 31 32 33 34 35 36 37 38 39 40 41 42 43 44 45 46 47 48 49 50
000
ASUS43 KLSX 061010
RWRMO

WEATHER SUMMARY FOR MISSOURI
NATIONAL WEATHER SERVICE SPRINGFIELD MO
400 AM CST TUE DEC 06 2016

NOTE: "FAIR" INDICATES FEW OR NO CLOUDS BELOW 12,000 FEET WITH NO
       SIGNIFICANT WEATHER AND/OR OBSTRUCTIONS TO VISIBILITY.
       CURRENT SKY AND/OR WEATHER CONDITIONS ARE NOT AVAILABLE FOR
       CHILLICOTHE AND FARMINGTON.

MOZ001>031-035>038-043-044-053-054-061100-
...NORTHERN AND WESTERN MISSOURI...

CITY           SKY/WX    TMP DP  RH WIND       PRES   REMARKS
KANSAS CTY INT CLOUDY    36  29  75 N23G31    29.85R WCI  24
KANSAS C DTWN  CLOUDY    40  35  83 N14G26    29.84R
LEE`S SUMMIT   MOCLDY    37  34  89 N15       29.83R WCI  28
ST JOSEPH      CLOUDY    35  29  78 N18       29.90R WCI  24
CHILLICOTHE      N/A     32  31  96 NW3       29.84R
KIRKSVILLE     FOG       35  34  96 CALM      29.81S VSB 1

$$
MOZ066>068-077>081-088>096-101>105-061100-
...SOUTHWEST MISSOURI...

CITY           SKY/WX    TMP DP  RH WIND       PRES   REMARKS
SPRINGFIELD    MOCLDY    36  34  92 NW8       29.76R FOG     WCI  30
JOPLIN         CLOUDY    35  34  96 CALM      29.81S
BRANSON        CLOUDY    39  39 100 CALM      29.75F FOG

$$
MOZ032>034-039>042-045>050-055>058-069>072-061100-
...CENTRAL MISSOURI...

CITY           SKY/WX    TMP DP  RH WIND       PRES   REMARKS
COLUMBIA       FOG       31  30  96 N6        29.77F VSB 1/4 WCI  25
JEFFERSON CITY PTCLDY    32  32 100 NW5       29.78F WCI  27
ROLLA          CLOUDY    37  36  96 NW3       29.73F
SEDALIA        FOG       29  27  92 W5        29.81R VSB 1/2 WCI  24
WHITEMAN AFB   FOG       28  28 100 CALM      29.80R VSB 3/4
WARRENSBURG    CLOUDY    32  32 100 NW3       29.81S
OSAGE BEACH    PTCLDY    31  29  92 NW3       29.77S

$$
MOZ051-052-059>065-061100-
...EAST CENTRAL MISSOURI...

CITY           SKY/WX    TMP DP  RH WIND       PRES   REMARKS
ST LOUIS INTL  CLOUDY    39  34  82 NE3       29.77F
SPIRIT OF STL  LGT RAIN  37  37 100 CALM      29.75F FOG
ST CHARLES     CLOUDY    38  36  92 E5        29.76F

$$
MOZ072>076-082>087-097>100-106>115-061100-
...SOUTH CENTRAL AND SOUTHEAST MISSOURI...

CITY           SKY/WX    TMP DP  RH WIND       PRES   REMARKS
CAPE GIRARDEAU RAIN      40  38  93 N6        29.70F FOG
FARMINGTON     CLOUDY    37  36  96 N3        29.72F FOG
POPLAR BLUFF   RAIN      41  40  96 NE7       29.70F FOG
WEST PLAINS    CLOUDY    39  38  96 NW7       29.73F

$$




USA.gov is the U.S. government's official web portal to all federal, state and local government web resources and services.